Estación de San Nicolás

Ultimos registro cada 15 minutos 77
Estación Fecha / Hora Temperatura Humedad Lluvia Velocidad Dirección Radiación Presion
77 San Nicolás 04-05-2026 19:00 14,3 91 0 0 76 0 1012,9
76 San Nicolás 04-05-2026 18:45 14,6 91 0 0 76 0 1012,9
75 San Nicolás 04-05-2026 18:30 14,8 91 0 0 76 0 1013
74 San Nicolás 04-05-2026 18:15 14,9 91 0 0 76 0 1013
73 San Nicolás 04-05-2026 18:00 15,2 90 0 0 76 0 1012,9
72 San Nicolás 04-05-2026 17:45 15,4 89 0 0 76 0 1012,8
71 San Nicolás 04-05-2026 17:30 15,6 89 0 0 76 0 1013,1
70 San Nicolás 04-05-2026 17:15 15,7 89 0 0 76 12 1013
69 San Nicolás 04-05-2026 17:00 15,8 88 0 0 76 21 1013
68 San Nicolás 04-05-2026 16:45 15,9 88 0 0 76 26 1013
67 San Nicolás 04-05-2026 16:30 16 87 0 0,4 76 33 1013,2
66 San Nicolás 04-05-2026 16:15 16,1 87 0 0 76 47 1013,4
65 San Nicolás 04-05-2026 16:00 16,1 87 0 0,4 76 70 1013,4
64 San Nicolás 04-05-2026 15:45 16,1 87 0 0 76 77 1013,6
63 San Nicolás 04-05-2026 15:30 16,1 87 0 0 76 93 1013,7
62 San Nicolás 04-05-2026 15:15 16,1 87 0 0,9 77 128 1013,8
61 San Nicolás 04-05-2026 15:00 16,1 88 0 0,9 77 134 1013,7
60 San Nicolás 04-05-2026 14:45 16,1 88 0 1,3 80 188 1013,7
59 San Nicolás 04-05-2026 14:30 16 89 0 0,9 79 207 1014,2
58 San Nicolás 04-05-2026 14:15 15,8 89 0 1,8 65 167 1014,4
57 San Nicolás 04-05-2026 14:00 15,6 90 0 1,8 60 218 1014,7
56 San Nicolás 04-05-2026 13:45 15,4 90 0 1,3 85 141 1014,7
55 San Nicolás 04-05-2026 13:30 15,3 90 0 1,3 69 120 1014,7
54 San Nicolás 04-05-2026 13:15 15,2 91 0 0,9 62 116 1015,3
53 San Nicolás 04-05-2026 13:00 15 91 0 0,9 59 183 1015,5
52 San Nicolás 04-05-2026 12:45 14,8 91 0 0 58 83 1015,8
51 San Nicolás 04-05-2026 12:30 14,8 91 0 0,4 58 113 1016
50 San Nicolás 04-05-2026 12:15 14,7 92 0 1,3 67 102 1015,8
49 San Nicolás 04-05-2026 12:00 14,7 92 0 0,9 68 91 1015,8
48 San Nicolás 04-05-2026 11:45 14,6 93 0 0 103 120 1016
47 San Nicolás 04-05-2026 11:30 14,3 94 0 0,9 44 137 1016
46 San Nicolás 04-05-2026 11:15 14,1 94 0 0,9 44 162 1016,2
45 San Nicolás 04-05-2026 11:00 13,9 95 0 0 44 195 1016,1
44 San Nicolás 04-05-2026 10:45 13,6 96 0 0 43 144 1016,1
43 San Nicolás 04-05-2026 10:30 13,3 96 0 0 43 116 1016,2
42 San Nicolás 04-05-2026 10:15 13,1 96 0 0 43 95 1016,1
41 San Nicolás 04-05-2026 10:00 12,9 96 0 0 43 98 1016
40 San Nicolás 04-05-2026 09:45 12,8 96 0 0 43 47 1015,9
39 San Nicolás 04-05-2026 09:30 12,6 96 0 0 43 65 1015,7
38 San Nicolás 04-05-2026 09:15 12,5 96 0 0 43 44 1015,6
37 San Nicolás 04-05-2026 09:00 12,3 96 0 0 43 76 1015,8
36 San Nicolás 04-05-2026 08:45 12,2 96 0 0 43 49 1015,5
35 San Nicolás 04-05-2026 08:30 12 96 0 0 43 32 1015,2
34 San Nicolás 04-05-2026 08:15 11,9 96 0 0 43 26 1015,3
33 San Nicolás 04-05-2026 08:00 11,8 96 0 0 43 25 1014,7
32 San Nicolás 04-05-2026 07:45 11,7 96 0 0 43 7 1014,9
31 San Nicolás 04-05-2026 07:30 11,6 96 0 0 43 0 1014,5
30 San Nicolás 04-05-2026 07:15 11,5 95 0 0 42 0 1014,5
29 San Nicolás 04-05-2026 07:00 11,4 95 0 0 42 0 1014,9
28 San Nicolás 04-05-2026 06:45 11,4 95 0 0 42 0 1015,2
27 San Nicolás 04-05-2026 06:30 11,5 95 0 0 42 0 1015,1
26 San Nicolás 04-05-2026 06:15 11,4 95 0 0 42 0 1014,5
25 San Nicolás 04-05-2026 06:00 11,4 95 0 0 42 0 1014,8
24 San Nicolás 04-05-2026 05:45 11,4 95 0 0 42 0 1014,6
23 San Nicolás 04-05-2026 05:30 11,3 94 0 0 42 0 1014,6
22 San Nicolás 04-05-2026 05:15 11,4 94 0 0 42 0 1014,5
21 San Nicolás 04-05-2026 05:00 11,3 94 0 0 42 0 1014,5
20 San Nicolás 04-05-2026 04:45 11,3 94 0 0 42 0 1014,6
19 San Nicolás 04-05-2026 04:30 11,3 93 0 0 42 0 1014,4
18 San Nicolás 04-05-2026 04:15 11,6 93 0 0 42 0 1014,2
17 San Nicolás 04-05-2026 04:00 11,8 93 0 0 42 0 1014,1
16 San Nicolás 04-05-2026 03:45 12,2 93 0 0 42 0 1014,4
15 San Nicolás 04-05-2026 03:30 12,3 93 0 0 42 0 1014,8
14 San Nicolás 04-05-2026 03:15 12,3 93 0 0 42 0 1014,9
13 San Nicolás 04-05-2026 03:00 12,3 93 0 0 42 0 1014,9
12 San Nicolás 04-05-2026 02:45 12,2 93 0 0 42 0 1015
11 San Nicolás 04-05-2026 02:30 12,2 93 0 0 42 0 1014,8
10 San Nicolás 04-05-2026 02:15 12,2 93 0 0 42 0 1014,8
9 San Nicolás 04-05-2026 02:00 12,3 93 0 0 42 0 1015,2
8 San Nicolás 04-05-2026 01:45 12,3 93 0 0 42 0 1015,4
7 San Nicolás 04-05-2026 01:30 12,4 93 0 0 42 0 1015,6
6 San Nicolás 04-05-2026 01:15 12,4 93 0 0 42 0 1015,7
5 San Nicolás 04-05-2026 01:00 12,5 94 0 1,3 42 0 1015,8
4 San Nicolás 04-05-2026 00:45 12,5 94 0 0 43 0 1016,4
3 San Nicolás 04-05-2026 00:30 12,5 94 0 0 43 0 1016,5
2 San Nicolás 04-05-2026 00:15 12,3 94 0 0,4 44 0 1016,4
1 San Nicolás 04-05-2026 00:00 11,9 94 0 0,9 49 0 1016,3